{"data":{"norad_id":52108,"epoch":"2026-09-20T01:05:05.160768Z","epoch_age_seconds":95019,"freshness":"FRESH","line1":"1 52108U 22029W   26263.04519862  .00001010  00000+0  42048-4 0  9998","line2":"2 52108  53.1581 271.9116 0001603  85.7155 274.4030 15.33549398250321","mean_motion":15.33549398,"eccentricity":0.0001603,"inclination_deg":53.1581,"raan_deg":271.9116,"arg_perigee_deg":85.7155,"mean_anomaly_deg":274.403,"bstar":4.2048e-5,"rev_number":25032,"period_min":93.899811892463,"perigee_km":464.1355849585,"apogee_km":466.32956924492,"semimajor_km":6843.3695771017,"source":"CELESTRAK","updated_at":"2026-09-20T09:00:39.987172Z"}}